Location: Innerarity Island Observatory
(30.3139°N, 87.4867°W)
Time: 23:35:55
(UTC-06:00)

JAS-2 - Visible Passes

Search period start: 31 January 2015 00:00
Search period end: 10 February 2015 00:00
Orbit: 800 x 1322 km, 98.5° (Epoch: 31 January)

Date Brightness Start Highest point End Pass type
(mag) Time Alt. Az. Time Alt. Az. Time Alt. Az.
31 Jan 9.6 04:30:05 10° NNE 04:36:04 78° ESE 04:42:52 10° S visible
31 Jan 11.1 06:18:17 10° NW 06:20:52 12° WNW 06:23:06 10° W visible
01 Feb 11.5 03:36:02 10° NE 03:40:58 26° E 03:46:34 10° SSE visible
01 Feb 10.0 05:20:33 10° N 05:26:05 39° WNW 05:32:12 10° SW visible
02 Feb 9.8 04:25:05 10° NNE 04:31:10 73° ESE 04:38:04 10° S visible
02 Feb 11.0 06:12:45 10° NW 06:15:59 14° WNW 06:18:57 10° W visible
03 Feb 11.6 03:31:10 10° NE 03:36:03 25° E 03:41:36 10° SSE visible
03 Feb 9.9 05:15:27 10° N 05:21:11 43° WNW 05:27:33 10° SW visible
04 Feb 9.9 04:20:06 10° NNE 04:26:16 68° ESE 04:33:16 10° S visible
04 Feb 11.0 06:07:22 10° NNW 06:11:06 16° WNW 06:14:40 10° WSW visible
05 Feb 11.7 03:26:19 10° NE 03:31:08 23° E 03:36:37 10° SSE visible
05 Feb 9.9 05:10:23 10° N 05:16:18 47° WNW 05:22:54 10° SW visible
06 Feb 10.1 04:15:08 10° NNE 04:21:23 63° E 04:28:28 10° S visible
06 Feb 10.9 06:02:03 10° NNW 06:06:13 18° WNW 06:10:19 10° WSW visible
07 Feb 11.8 03:21:30 10° NE 03:26:14 22° E 03:31:38 10° SE visible
07 Feb 9.8 05:05:19 10° N 05:11:26 51° WNW 05:18:15 10° SSW visible
08 Feb 10.2 04:10:11 10° NNE 04:16:31 59° E 04:23:40 10° S visible
08 Feb 10.9 05:56:49 10° NNW 06:01:21 20° WNW 06:05:55 10° WSW visible
09 Feb 11.9 03:16:42 10° NE 03:21:19 21° E 03:26:37 10° SE visible
09 Feb 9.8 05:00:17 10° N 05:06:34 56° WNW 05:13:35 10° SSW visible
